Change the Weather History Date:

Sunday, April 28, 2013

  Actual Average Record
Temperature  
Mean Temperature 58 °F 59 °F  
Max Temperature 78 °F 71 °F 92 °F (1910)
Min Temperature 38 °F 48 °F 30 °F (1979)
Degree Days  
Heating Degree Days 7 7  
Month to date heating degree days 442 309  
Since 1 July heating degree days 4763 4904  
Cooling Degree Days 0 1  
Month to date cooling degree days 0 21  
Year to date cooling degree days 0 24  
Growing Degree Days 8 (Base 50)    
Moisture  
Dew Point 47 °F    
Average Humidity 71    
Maximum Humidity 100    
Minimum Humidity 42    
Precipitation  
Precipitation 0.00 in 0.14 in 1.97 in (2006)
Month to date precipitation 3.12 3.24  
Year to date precipitation 7.57 7.91  
Snow  
Snow 0.00 in 0.00 in T in (1994)
Month to date snowfall 0.3 0.3  
Year to date snowfall 24.2 11.3  
Since 1 July snowfall 29.6 17.8  
Snow Depth 0.00 in    
Sea Level Pressure  
Sea Level Pressure 29.94 in    
Wind  
Wind Speed 8 mph (South)    
Max Wind Speed 20 mph    
Max Gust Speed 24 mph    
Visibility 5 miles    
Events Fog    
T = Trace of Precipitation, MM = Missing Value Source: NWS Daily Summary

Daily Weather History Graph

Daily Weather History Graph

Search for Another Location

Airport or City:

Trip Planner

Search our weather history database for the weather conditions in past years. The results will help you decide how hot, cold, wet, or windy it might be!

Date:

Astronomy

Apr. 28, 2013 Rise Set
Actual Time 6:27 AM CDT 8:12 PM CDT
Civil Twilight 5:59 AM CDT 8:41 PM CDT
Nautical Twilight 5:24 AM CDT 9:16 PM CDT
Astronomical Twilight 4:47 AM CDT 9:53 PM CDT
Moon 11:43 PM CDT (4/28) 8:46 AM CDT (4/28)
Length of Visible Light 14h 42m
Length of Day
13h 45m
Waning Gibbous, 88% of the Moon is Illuminated
Apr 28
Waning Gibbous
May 2
Last Quarter
May 9
New
May 17
First Quarter
May 24
Full

Hourly Weather History & Observations

Time (CDT) Temp. Windchill Dew Point Humidity Pressure Visibility Wind Dir Wind Speed Gust Speed Precip Events Conditions
12:08 AM 44.6 °F - 42.8 °F 93% 30.02 in 1.8 mi Calm Calm - N/A   Clear
12:27 AM 45.0 °F - 42.1 °F 90% 30.02 in 0.5 mi Calm Calm - N/A Fog Fog
12:49 AM 46.4 °F - 44.6 °F 93% 30.02 in 1.0 mi Calm Calm - N/A   Clear
12:53 AM 45.0 °F - 43.0 °F 93% 30.02 in 1.8 mi Calm Calm - N/A   Clear
1:00 AM 45.0 °F 43.5 °F 43.0 °F 93% 30.02 in 2.0 mi SSW 3.5 mph - N/A   Clear
1:08 AM 46.9 °F - 45.0 °F 93% 30.02 in 7.0 mi SW 3.5 mph - N/A   Clear
1:41 AM 45.0 °F - 44.1 °F 97% 30.01 in 1.2 mi Calm Calm - N/A   Clear
1:53 AM 45.0 °F - 43.0 °F 93% 30.01 in 3.0 mi Calm Calm - N/A   Clear
2:11 AM 45.0 °F - 43.0 °F 93% 30.00 in 1.5 mi Calm Calm - N/A   Clear
2:16 AM 44.1 °F - 42.1 °F 93% 29.99 in 0.5 mi Calm Calm - N/A Fog Fog
2:53 AM 43.0 °F 39.5 °F 41.0 °F 93% 30.00 in 0.2 mi NW 5.8 mph - N/A Fog Fog
3:18 AM 43.0 °F - 42.1 °F 97% 29.99 in 1.0 mi Calm Calm - N/A   Mist
3:25 AM 43.0 °F - 41.0 °F 93% 29.99 in 2.0 mi Calm Calm - N/A   Partly Cloudy
3:34 AM 43.0 °F - 39.9 °F 89% 29.99 in 3.0 mi Calm Calm - N/A   Clear
3:42 AM 43.0 °F - 41.0 °F 93% 29.99 in 2.5 mi Calm Calm - N/A   Clear
3:53 AM 43.0 °F 41.3 °F 41.0 °F 93% 29.99 in 2.0 mi SSW 3.5 mph - N/A   Clear
4:12 AM 37.9 °F 34.4 °F 37.0 °F 97% 29.98 in 0.8 mi North 4.6 mph - N/A   Mist
4:22 AM 39.0 °F - 37.9 °F 96% 29.98 in 0.2 mi Calm Calm - N/A Fog Fog
4:53 AM 39.0 °F - 37.9 °F 96% 29.99 in 0.2 mi Calm Calm - N/A Fog Fog
5:53 AM 39.9 °F - 39.0 °F 97% 29.99 in 0.2 mi Calm Calm - N/A Fog Fog
6:53 AM 39.9 °F - 39.0 °F 97% 29.99 in 0.2 mi Calm Calm - N/A Fog Fog
7:53 AM 42.8 °F - 42.8 °F 100% 29.99 in 0.8 mi Calm Calm - N/A   Mist
8:05 AM 45.0 °F - 44.1 °F 97% 29.99 in 2.5 mi Calm Calm - N/A   Partly Cloudy
8:12 AM 46.0 °F - 45.0 °F 96% 29.99 in 3.0 mi Calm Calm - N/A   Partly Cloudy
8:53 AM 55.0 °F - 48.9 °F 80% 29.99 in 10.0 mi SSW 11.5 mph - N/A   Clear
9:53 AM 59.0 °F - 51.1 °F 75% 29.96 in 10.0 mi South 9.2 mph - N/A   Clear
10:53 AM 63.0 °F - 53.1 °F 70% 29.96 in 10.0 mi SSW 10.4 mph - N/A   Clear
11:53 AM 66.0 °F - 54.0 °F 65% 29.94 in 10.0 mi South 11.5 mph - N/A   Clear
12:53 PM 70.0 °F - 55.0 °F 59% 29.91 in 10.0 mi SSE 15.0 mph - N/A   Clear
1:53 PM 73.0 °F - 55.0 °F 53% 29.89 in 10.0 mi South 16.1 mph - N/A   Clear
2:53 PM 75.0 °F - 53.1 °F 46% 29.85 in 10.0 mi South 16.1 mph - N/A   Clear
3:53 PM 77.0 °F - 54.0 °F 45% 29.82 in 10.0 mi SSE 13.8 mph 19.6 mph N/A   Clear
4:53 PM 78.1 °F - 54.0 °F 43% 29.79 in 10.0 mi South 16.1 mph 20.7 mph N/A   Clear
5:53 PM 78.1 °F - 54.0 °F 43% 29.78 in 10.0 mi South 11.5 mph 19.6 mph N/A   Clear
6:53 PM 75.9 °F - 54.0 °F 46% 29.76 in 10.0 mi South 12.7 mph - N/A   Clear
7:53 PM 72.0 °F - 55.9 °F 57% 29.76 in 10.0 mi SSE 10.4 mph - N/A   Clear
8:53 PM 68.0 °F - 55.9 °F 65% 29.76 in 10.0 mi SE 9.2 mph - N/A   Clear
9:53 PM 66.0 °F - 55.9 °F 70% 29.77 in 10.0 mi SSE 8.1 mph - N/A   Clear
10:53 PM 64.9 °F - 55.0 °F 70% 29.78 in 10.0 mi SSE 6.9 mph - N/A   Clear
11:53 PM 63.0 °F - 55.0 °F 75% 29.77 in 10.0 mi SSE 5.8 mph - N/A   Clear